"Time","Temp","Dewpoint","Humidity","Pressure","Direction","Speed","Gust","Precip","PrecipRate"
"00:04:59","60.9","58.6","92","30.16","345","0","0","0.00","0.00"
"00:09:56","60.8","58.5","92","30.16","345","0","0","0.00","0.00"
"00:14:56","60.7","58.4","92","30.16","345","0","0","0.00","0.00"
"00:19:56","60.5","58.2","92","30.16","345","0","0","0.00","0.00"
"00:24:59","60.4","58.1","92","30.16","345","0","0","0.00","0.00"
"00:29:57","60.4","58.1","92","30.16","345","0","0","0.00","0.00"
"00:34:59","60.2","57.9","92","30.16","345","0","0","0.00","0.00"
"00:39:59","60.1","57.8","92","30.16","345","0","0","0.00","0.00"
"00:44:58","60","57.7","92","30.16","345","0","0","0.00","0.00"
"00:49:56","59.9","57.9","93","30.16","345","0","0","0.00","0.00"
"00:54:56","59.8","57.8","93","30.16","345","0","0","0.00","0.00"
"00:59:58","59.6","57.6","93","30.16","345","0","0","0.00","0.00"
"01:04:56","59.6","57.6","93","30.16","345","0","0","0.00","0.00"
"01:09:56","59.5","57.5","93","30.16","345","0","0","0.00","0.00"
"01:14:56","59.3","57.3","93","30.16","345","0","0","0.00","0.00"
"01:19:59","59.2","57.2","93","30.16","345","0","0","0.00","0.00"
"01:24:58","59","57","93","30.16","345","0","0","0.00","0.00"
"01:29:56","58.9","56.9","93","30.16","345","0","0","0.00","0.00"
"01:34:58","58.8","56.8","93.1","30.16","345","0","0","0.00","0.00"
"01:39:58","58.7","57","94","30.16","345","0","0","0.00","0.00"
"01:44:56","58.7","57","94","30.16","345","0","0","0.00","0.00"
"01:49:58","58.6","56.9","94","30.16","345","0","0","0.00","0.00"
"01:54:57","58.5","56.8","94","30.16","345","0","0","0.00","0.00"
"01:59:56","58.4","56.7","94","30.16","345","0","0","0.00","0.00"
"02:04:58","58.3","56.6","94","30.16","345","0","0","0.00","0.00"
"02:09:58","58.2","56.5","94","30.16","345","0","0","0.00","0.00"
"02:14:58","58.2","56.5","94","30.16","345","0","0","0.00","0.00"
"02:19:56","58.1","56.4","94","30.16","345","0","0","0.00","0.00"
"02:24:59","58","56.3","94","30.16","345","0","0","0.00","0.00"
"02:29:57","57.9","56.2","94","30.16","345","0","0","0.00","0.00"
"02:34:56","57.8","56.1","94","30.16","345","0","0","0.00","0.00"
"02:39:59","57.9","56.2","94.2","30.16","345","0","0","0.00","0.00"
"02:44:58","57.9","56.3","94.5","30.16","345","0","0","0.00","0.00"
"02:49:56","57.8","56.1","94","30.16","345","0","0","0.00","0.00"
"02:54:59","57.7","56","94","30.16","345","0","0","0.00","0.00"
"02:59:58","57.5","55.8","94","30.16","345","0","0","0.00","0.00"
"03:04:57","57.4","55.7","94","30.16","345","0","0","0.00","0.00"
"03:09:57","57.3","55.6","94","30.16","345","0","0","0.00","0.00"
"03:14:58","57.2","55.5","94","30.16","345","0","0","0.00","0.00"
"03:19:56","57.2","55.6","94.3","30.16","345","0","0","0.00","0.00"
"03:24:59","57.1","55.7","95","30.16","345","0","0","0.00","0.00"
"03:29:57","57","55.6","95","30.16","345","0","0","0.00","0.00"
"03:34:56","56.9","55.5","95","30.15","345","0","0","0.00","0.00"
"03:39:59","56.8","55.2","94.3","30.15","345","0","0","0.00","0.00"
"03:44:58","56.8","55.2","94.3","30.15","345","0","0","0.00","0.00"
"03:49:56","56.7","55.3","95","30.15","345","0","0","0.00","0.00"
"03:54:59","56.7","55.3","95","30.15","345","0","0","0.00","0.00"
"03:59:57","56.6","55.2","95","30.16","345","0","0","0.00","0.00"
"04:04:59","56.6","55.2","95","30.16","345","0","0","0.00","0.00"
"04:09:59","56.4","55","95","30.16","345","0","0","0.00","0.00"
"04:14:59","56.3","54.9","95","30.16","345","0","0","0.00","0.00"
"04:19:57","56.2","54.8","95","30.16","345","0","0","0.00","0.00"
"04:24:56","56.2","54.8","95","30.16","345","0","0","0.00","0.00"
"04:29:57","56.1","54.7","95","30.16","345","0","0","0.00","0.00"
"04:34:56","56.1","54.7","95","30.16","345","0","0","0.00","0.00"
"04:39:58","56.1","54.7","95","30.16","345","0","0","0.00","0.00"
"04:44:59","56.1","54.7","95","30.16","345","0","0","0.00","0.00"
"04:49:59","56.1","54.7","95","30.16","345","0","0","0.00","0.00"
"04:54:56","56","54.6","95","30.16","345","0","0","0.00","0.00"
"04:59:58","55.8","54.4","95","30.16","345","0","0","0.00","0.00"
"05:04:56","55.7","54.3","95","30.16","345","0","0","0.00","0.00"
"05:09:56","55.6","54.2","95","30.16","345","0","0","0.00","0.00"
"05:14:56","55.6","54.2","95","30.16","345","0","0","0.00","0.00"
"05:19:58","55.5","54.1","95","30.16","345","0","0","0.00","0.00"
"05:24:57","55.5","54.1","95","30.16","345","0","0","0.00","0.00"
"05:29:58","55.7","54.5","95.8","30.17","345","0","0","0.00","0.00"
"05:34:56","55.7","54.6","96","30.17","345","0","0","0.00","0.00"
"05:39:59","55.6","54.5","96","30.17","345","0","0","0.00","0.00"
"05:44:57","55.4","54","95.1","30.17","345","0","0","0.00","0.00"
"05:49:58","55.3","54.1","95.7","30.17","345","0","0","0.00","0.00"
"05:54:56","55.3","54.2","96","30.17","345","0","0","0.00","0.00"
"05:59:58","55.3","54.2","96","30.17","345","0","0","0.00","0.00"
"06:04:56","55.3","54.2","96","30.17","345","0","0","0.00","0.00"
"06:09:57","55.3","54.2","96","30.17","345","0","0","0.00","0.00"
"06:14:56","55.3","54.2","96","30.18","345","0","0","0.00","0.00"
"06:19:58","55.3","54.2","96","30.18","345","0","0","0.00","0.00"
"06:24:56","55.2","54.1","96","30.18","345","0","0","0.00","0.00"
"06:29:57","55.1","54","96","30.18","345","0","0","0.00","0.00"
"06:34:59","55.1","54","96","30.18","345","0","0","0.00","0.00"
"06:39:57","55.1","54","96","30.18","345","0","0","0.00","0.00"
"06:44:59","55.1","54","96","30.19","345","0","0","0.00","0.00"
"06:49:56","55","53.9","96","30.19","345","0","0","0.00","0.00"
"06:54:59","55","53.9","96","30.19","345","0","0","0.00","0.00"
"06:59:56","55","53.9","96","30.19","345","0","0","0.00","0.00"
"07:04:58","54.9","53.8","96","30.19","345","0","0","0.00","0.00"
"07:09:57","54.9","53.8","96","30.19","345","0","0","0.00","0.00"
"07:14:56","54.8","53.7","96","30.20","345","0","0","0.00","0.00"
"07:19:58","54.8","53.7","96","30.20","345","0","0","0.00","0.00"
"07:24:56","54.8","53.7","96","30.20","345","0","0","0.00","0.00"
"07:29:57","54.8","53.7","96","30.21","345","0","0","0.00","0.00"
"07:34:59","54.8","53.7","96","30.21","345","0","0","0.00","0.00"
"07:39:58","54.8","53.7","96","30.21","345","0","0","0.00","0.00"
"07:44:56","55.1","54","96","30.21","345","0","0","0.00","0.00"
"07:49:57","55.4","54.3","96","30.21","345","0","0","0.00","0.00"
"07:54:59","55.9","54.9","96.1","30.21","345","0","0","0.00","0.00"
"07:59:56","56.4","55.6","97","30.22","345","0","0","0.00","0.00"
"08:04:58","56.7","55.9","97","30.22","345","0","0","0.00","0.00"
"08:09:58","57.5","56.7","97","30.22","345","0","0","0.00","0.00"
"08:14:56","58.2","57.4","97","30.22","345","0","0","0.00","0.00"
"08:19:58","58.7","57.9","97","30.22","345","0","0","0.00","0.00"
"08:24:59","59.3","58.4","97","30.22","345","0","0","0.00","0.00"
"08:29:59","59.9","58.8","96.1","30.23","345","0","0","0.00","0.00"
"08:34:57","60.5","59","94.7","30.23","345","0","0","0.00","0.00"
"08:39:59","61","59.1","93.5","30.23","343","0","0","0.00","0.00"
"08:44:56","61.6","59.4","92.5","30.23","344","0","0","0.00","0.00"
"08:49:57","62.2","59.6","91.3","30.23","349","0","0","0.00","0.00"
"08:54:58","62.9","60","90.4","30.23","349","0","0","0.00","0.00"
"08:59:59","63.4","60.1","89","30.23","347","1","4.8","0.00","0.00"
"09:04:56","63.8","60.3","88.2","30.23","347","1.9","3.6","0.00","0.00"
"09:09:56","64.3","60.6","87.6","30.23","346","2.2","4.8","0.00","0.00"
"09:14:58","64.9","60.8","86.8","30.23","345","0.6","4.8","0.00","0.00"
"09:19:59","65.8","61.3","85.3","30.23","350","1.8","6","0.00","0.00"
"09:24:57","66.5","61.8","84.9","30.23","349","0.3","2.4","0.00","0.00"
"09:29:57","67.5","62.3","83.4","30.23","349","0.5","3.6","0.00","0.00"
"09:34:59","68.1","62.3","81.8","30.23","349","1.6","4.8","0.00","0.00"
"09:39:57","68.5","62.3","80.6","30.23","350","0.4","3.5","0.00","0.00"
"09:44:58","68.9","62.8","80.8","30.23","350","0.4","2.4","0.00","0.00"
"09:49:59","69.9","63.7","80.5","30.23","350","0.3","2.4","0.00","0.00"
"09:54:58","70.6","63.9","79.4","30.23","350","0.5","3.6","0.00","0.00"
"09:59:56","70.6","63","76.9","30.23","350","0.2","2.3","0.00","0.00"
"10:04:58","70.6","63.9","79.3","30.23","350","0.2","1.2","0.00","0.00"
"10:09:57","72","64.9","78.4","30.23","350","0.4","3.6","0.00","0.00"
"10:14:56","72.7","64.5","75.5","30.23","350","0.5","3.6","0.00","0.00"
"10:19:56","73.1","64.4","74.4","30.23","347","1.3","4.8","0.00","0.00"
"10:24:57","73.7","64.6","73.1","30.23","347","0.9","3.6","0.00","0.00"
"10:29:58","74","64.5","72.1","30.23","347","0.3","3.6","0.00","0.00"
"10:34:59","74.5","64.1","70.1","30.23","325","0.5","3.6","0.00","0.00"
"10:39:56","75.1","64.2","69.1","30.23","304","1.4","3.6","0.00","0.00"
"10:44:57","75.3","63.6","67.1","30.23","322","1.8","6","0.00","0.00"
"10:49:57","75.6","63.3","65.6","30.23","331","2.2","4.8","0.00","0.00"
"10:54:57","75.7","62.8","64.4","30.23","339","1.8","3.6","0.00","0.00"
"10:59:56","75.8","63.8","66.3","30.23","326","1.4","2.4","0.00","0.00"
"11:04:59","76.3","64.6","67.2","30.23","325","0.8","2.4","0.00","0.00"
"11:09:58","76.7","65.2","67.5","30.23","277","0.6","3.6","0.00","0.00"
"11:14:56","77.4","65.6","67","30.23","263","0.2","1.2","0.00","0.00"
"11:19:57","77.4","64.6","64.7","30.23","263","0.9","3.6","0.00","0.00"
"11:24:57","77.6","64.5","64.1","30.23","245","0.7","3.5","0.00","0.00"
"11:29:56","77.6","64.2","63.4","30.23","202","0.7","2.4","0.00","0.00"
"11:34:57","78","64.4","62.9","30.22","202","0.7","3.6","0.00","0.00"
"11:39:57","79","64.9","62.1","30.22","269","1.3","4.8","0.00","0.00"
"11:44:59","78.8","65.3","63.3","30.22","221","1.2","3.6","0.00","0.00"
"11:49:57","79.3","65.5","62.7","30.22","143","1.2","6","0.00","0.00"
"11:54:59","78.8","64.2","61.2","30.22","136","1.2","4.6","0.00","0.00"
"11:59:57","79","63.6","59.2","30.22","139","1.7","4.8","0.00","0.00"
"12:04:56","79.4","63.9","59.2","30.22","152","2.8","4.8","0.00","0.00"
"12:09:57","79.6","63","57.1","30.22","153","1.4","4.6","0.00","0.00"
"12:14:57","79.7","62.2","55.3","30.22","153","1","3.6","0.00","0.00"
"12:19:59","78.9","61.8","55.9","30.21","153","1.2","3.6","0.00","0.00"
"12:24:57","79.8","63.4","57.4","30.21","153","1.2","4.8","0.00","0.00"
"12:29:59","80.2","63.3","56.5","30.21","80","0.6","3.6","0.00","0.00"
"12:34:58","80.7","63.8","56.6","30.21","91","1.1","4.8","0.00","0.00"
"12:39:57","80.6","63.2","55.5","30.21","193","2","6","0.00","0.00"
"12:44:56","80.6","64.3","57.7","30.21","178","1.5","4.8","0.00","0.00"
"12:49:58","80.7","63.8","56.7","30.21","168","1.2","4.8","0.00","0.00"
"12:54:57","80.6","63.6","56.3","30.21","135","1.9","6","0.00","0.00"
"12:59:59","80.3","62.9","55.6","30.21","132","2","4.6","0.00","0.00"
"13:04:58","80.8","63.7","56.2","30.20","138","0.8","4.8","0.00","0.00"
"13:09:59","81.4","62.1","52","30.20","172","2.8","6","0.00","0.00"
"13:14:59","81.2","62.6","53.3","30.20","171","2.5","5.8","0.00","0.00"
"13:19:57","81.2","62.2","52.6","30.20","171","1.4","4.8","0.00","0.00"
"13:24:56","81","61.7","52","30.20","161","1","6","0.00","0.00"
"13:29:58","81.2","61.2","50.7","30.20","138","1.4","5.8","0.00","0.00"
"13:34:57","81.3","60.4","49.1","30.19","150","2","4.8","0.00","0.00"
"13:39:56","81.3","61.6","51.3","30.19","180","3.7","8.4","0.00","0.00"
"13:44:59","81.4","61.8","51.6","30.19","166","2.3","8.1","0.00","0.00"
"13:49:57","81.9","63.9","54.5","30.19","194","1.5","4.8","0.00","0.00"
"13:54:56","81.5","62","51.7","30.19","136","1.2","4.6","0.00","0.00"
"13:59:58","81.5","61.3","50.5","30.19","138","1.3","3.6","0.00","0.00"
"14:04:57","82.7","63.2","51.9","30.18","178","2.8","6","0.00","0.00"
"14:09:58","82.4","62.2","50.7","30.18","145","3.3","6","0.00","0.00"
"14:14:58","81.5","61.2","50.2","30.18","159","1.4","5.8","0.00","0.00"
"14:19:56","81.9","61.5","50","30.18","159","0.4","4.8","0.00","0.00"
"14:24:59","82.4","63.4","52.9","30.18","199","3.2","7.2","0.00","0.00"
"14:29:57","82.5","62.4","50.7","30.18","172","2.4","6","0.00","0.00"
"14:34:59","82.8","62.7","50.8","30.17","175","1.2","5.8","0.00","0.00"
"14:39:58","82.9","61.2","48.1","30.17","168","0.7","3.5","0.00","0.00"
"14:44:56","82.6","61.1","48.4","30.17","147","2.9","6","0.00","0.00"
"14:49:59","81.9","62","50.9","30.17","140","2","4.6","0.00","0.00"
"14:54:58","82","61.5","49.9","30.17","136","0.8","3.5","0.00","0.00"
"14:59:56","82.8","61.9","49.4","30.17","130","1.4","4.8","0.00","0.00"
"15:04:59","82.9","60.8","47.4","30.16","127","1.8","3.6","0.00","0.00"
"15:09:56","83.1","60.3","46.2","30.16","146","1.9","4.8","0.00","0.00"
"15:14:56","83","60.7","47","30.16","123","1","4.6","0.00","0.00"
"15:19:58","83.2","60.8","47","30.16","162","1.4","6","0.00","0.00"
"15:24:57","83.1","60.4","46.4","30.16","158","3.8","8.4","0.00","0.00"
"15:29:59","83","60.1","46","30.16","164","2.8","8.1","0.00","0.00"
"15:34:58","83","60.6","46.8","30.16","169","2.3","4.8","0.00","0.00"
"15:39:57","83","61","47.5","30.16","184","2.8","7.2","0.00","0.00"
"15:44:59","82.6","60.3","47.1","30.16","138","1.6","4.8","0.00","0.00"
"15:49:58","82.6","60.1","46.8","30.16","173","2.6","6","0.00","0.00"
"15:54:57","82.5","58.8","44.7","30.16","159","3.5","8.4","0.00","0.00"
"15:59:59","82.1","58.4","44.5","30.16","133","2.8","6","0.00","0.00"
"16:04:58","82.3","58.6","44.6","30.16","162","2.7","6","0.00","0.00"
"16:09:59","82.4","58.4","44.2","30.16","176","3.5","8.4","0.00","0.00"
"16:14:58","82.5","58.4","44.1","30.16","158","2.8","8.1","0.00","0.00"
"16:19:57","81.7","58.3","45","30.16","130","2.6","6","0.00","0.00"
"16:24:59","81.1","56.9","43.7","30.16","122","2.6","6","0.00","0.00"
"16:29:57","81.1","57","43.8","30.16","146","2.6","8.4","0.00","0.00"
"16:34:56","81.9","55.5","40.5","30.16","168","3.2","8.1","0.00","0.00"
"16:39:59","81.9","55.4","40.2","30.16","175","2.9","6","0.00","0.00"
"16:44:57","81.6","55.5","40.9","30.16","152","3.1","7.2","0.00","0.00"
"16:49:56","81.2","55.3","41.1","30.15","155","2.3","5.8","0.00","0.00"
"16:54:59","81.1","56","42.2","30.15","169","2.3","6","0.00","0.00"
"16:59:57","81.3","55.3","41","30.16","167","3.8","7.2","0.00","0.00"
"17:04:57","81.4","56.1","42","30.16","173","2.4","5.8","0.00","0.00"
"17:09:58","81.3","56.2","42.3","30.16","148","2.2","4.8","0.00","0.00"
"17:14:56","80.9","56.8","43.8","30.16","155","2.6","6","0.00","0.00"
"17:19:57","80.6","56.4","43.5","30.15","162","3.7","8.4","0.00","0.00"
"17:24:59","80.4","56.8","44.4","30.15","157","2.2","6","0.00","0.00"
"17:29:56","80.2","57.4","45.8","30.15","146","2.7","6","0.00","0.00"
"17:34:56","79.8","58.1","47.5","30.15","150","3","6","0.00","0.00"
"17:39:59","79.8","58.6","48.3","30.15","185","3.4","8.4","0.00","0.00"
"17:44:58","79.9","58.4","47.9","30.15","166","3","6","0.00","0.00"
"17:49:57","80","58.3","47.6","30.15","150","2.1","4.8","0.00","0.00"
"17:54:56","79.9","58","47.3","30.15","170","1.8","4.8","0.00","0.00"
"17:59:59","79.6","57","46.1","30.16","167","1.7","6","0.00","0.00"
"18:04:58","79.1","56.1","45.3","30.16","147","2.3","6","0.00","0.00"
"18:09:58","78.6","56.2","46.2","30.16","151","2.9","6","0.00","0.00"
"18:14:56","78.2","56.5","47.4","30.16","149","1.7","7.2","0.00","0.00"
"18:19:58","77.8","56.5","48.1","30.15","162","2.3","7.2","0.00","0.00"
"18:24:56","77.3","56.8","49.2","30.15","165","1.1","4.8","0.00","0.00"
"18:29:58","76.9","56.7","49.8","30.16","155","2","4.8","0.00","0.00"
"18:34:57","76.4","56","49.5","30.16","160","2","6","0.00","0.00"
"18:39:56","76","55.8","49.6","30.16","162","1.3","4.8","0.00","0.00"
"18:44:58","75.7","55.6","49.8","30.16","162","0.5","2.4","0.00","0.00"
"18:49:56","75.2","55.8","50.9","30.16","163","0.4","2.4","0.00","0.00"
"18:54:59","74.7","55.9","52.1","30.16","163","0.5","2.4","0.00","0.00"
"18:59:57","74","56.3","54","30.16","163","0.4","2.4","0.00","0.00"
"19:04:59","73.4","56.1","54.6","30.16","163","0.4","2.4","0.00","0.00"
"19:09:58","72.9","56","55.5","30.16","162","0.4","3.6","0.00","0.00"
"19:14:58","72.3","55.9","56.5","30.16","162","0.3","2.4","0.00","0.00"
"19:19:56","71.7","56.3","58.5","30.16","162","0.7","2.4","0.00","0.00"
"19:24:59","70.9","56.3","60","30.16","162","0.4","2.3","0.00","0.00"
"19:29:57","70.3","55.9","60.5","30.16","163","0","0","0.00","0.00"
"19:34:59","69.8","55.8","61.2","30.16","163","0","0","0.00","0.00"
"19:39:58","69.3","56.4","63.6","30.16","162","0","0","0.00","0.00"
"19:44:58","68.6","56.9","66.1","30.17","162","0","0","0.00","0.00"
"19:49:56","67.9","57.1","68.3","30.17","162","0","0","0.00","0.00"
"19:54:59","67.2","56.9","69.6","30.17","162","0","0","0.00","0.00"
"19:59:58","66.6","56.8","70.7","30.17","162","0","0","0.00","0.00"
"20:04:56","66.1","56.4","71","30.17","162","0","0","0.00","0.00"
"20:09:56","65.6","55.9","71","30.17","162","0","0","0.00","0.00"
"20:14:56","65.2","56","72.1","30.17","162","0","0","0.00","0.00"
"20:19:58","64.9","56","73.1","30.17","162","0","0","0.00","0.00"
"20:24:57","64.6","56.2","74.3","30.17","162","0","0","0.00","0.00"
"20:29:59","64.2","56.1","75.1","30.18","162","0","0","0.00","0.00"
"20:34:58","63.8","56.1","76","30.18","162","0","0","0.00","0.00"
"20:39:57","63.4","56.1","76.9","30.18","162","0","0","0.00","0.00"
"20:44:56","63.1","55.8","77","30.19","162","0","0","0.00","0.00"
"20:49:59","62.8","55.5","77","30.19","162","0","0","0.00","0.00"
"20:54:57","62.7","55.3","76.7","30.19","162","0","0","0.00","0.00"
"20:59:59","62.7","55.4","77","30.19","162","0.8","2.4","0.00","0.00"
"21:04:57","62.9","55.6","77","30.19","162","0.4","2.4","0.00","0.00"
"21:09:57","63","55.8","77.4","30.19","162","0.3","2.4","0.00","0.00"
"21:14:57","62.8","55.9","78.2","30.19","162","0.3","2.4","0.00","0.00"
"21:19:59","62.4","55.8","79","30.19","162","0","1.2","0.00","0.00"
"21:24:58","62.3","55.7","79","30.19","162","0","0","0.00","0.00"
"21:29:56","62.2","55.7","79.4","30.20","162","0.4","1.2","0.00","0.00"
"21:34:59","61.9","55.8","80.4","30.20","162","0","1.2","0.00","0.00"
"21:39:58","61.7","55.8","81","30.20","162","0","0","0.00","0.00"
"21:44:57","61.5","55.6","81","30.20","162","0","0","0.00","0.00"
"21:49:56","61.3","55.4","81","30.20","162","0","0","0.00","0.00"
"21:54:58","61","55.5","81.8","30.20","162","0","0","0.00","0.00"
"21:59:57","60.8","55.4","82.2","30.21","162","0","0","0.00","0.00"
"22:04:59","60.6","55.2","82.3","30.21","162","0","0","0.00","0.00"
"22:09:59","60.5","55.3","83","30.21","162","0","0","0.00","0.00"
"22:14:59","60.3","55.1","83","30.21","162","0","0","0.00","0.00"
"22:19:58","60.1","55","83.4","30.21","162","0","0","0.00","0.00"
"22:24:57","59.9","55.1","84","30.21","162","0","0","0.00","0.00"
"22:29:59","59.8","55.2","84.7","30.21","162","0","0","0.00","0.00"
"22:34:58","59.6","55.1","85","30.21","162","0","0","0.00","0.00"
"22:39:57","59.8","55.3","85.2","30.21","162","0","0","0.00","0.00"
"22:44:59","60.4","55.9","85","30.21","162","0","0","0.00","0.00"
"22:49:58","61","56.3","84.3","30.21","162","0","0","0.00","0.00"
"22:54:57","61.3","56.1","83","30.21","162","0","0","0.00","0.00"
"22:59:59","61.5","56.3","83","30.21","162","0","0","0.00","0.00"
"23:04:57","61.6","56","82","30.21","162","0","0","0.00","0.00"
"23:09:57","61","55.8","82.9","30.21","162","0","0","0.00","0.00"
"23:14:57","60.5","55.5","83.9","30.21","162","0","0","0.00","0.00"
"23:19:56","60.3","55.4","84","30.21","162","0","0","0.00","0.00"
"23:24:58","60.1","55.2","84","30.21","162","0","0","0.00","0.00"
"23:29:59","59.9","55.4","84.8","30.21","162","0","0","0.00","0.00"
"23:34:56","59.7","55.2","85","30.21","162","0","0","0.00","0.00"
"23:39:58","59.4","55.2","86","30.21","162","0","0","0.00","0.00"
"23:44:55","59.2","55.2","86.6","30.21","162","0","0","0.00","0.00"
